Regional Weather Roundup
Issued by NWS Upton, NY

Home | Current Version | Previous Version | Text Only | Print | Product List | Glossary On
Versions: 1 2 3 4 5 6 7 8 9 10 11 12 13 14 15 16 17 18 19 20 21 22 23 24 25 26 27 28 29 30 31 32 33 34 35 36 37 38 39 40 41 42 43 44 45 46 47 48 49 50
000
ASUS41 KOKX 230605
RWROKX

REGIONAL WEATHER ROUNDUP
NATIONAL WEATHER SERVICE NEW YORK NY
100 AM EST SUN NOV 23 2014

NOTE: "FAIR" INDICATES FEW OR NO CLOUDS BELOW 12,000 FEET WITH NO
SIGNIFICANT WEATHER AND/OR OBSTRUCTIONS TO VISIBILITY.

NYZ071-072-176-178-NJZ106-104-230700-
NEW YORK CITY METRO AREA


CITY           SKY/WX    TMP DP  RH WIND       PRES   REMARKS
CENTRAL PARK   CLOUDY    44  19  36 W10G22    30.20F
LAGUARDIA APRT CLOUDY    45  21  38 SW12G18   30.19F
KENNEDY INTL   CLOUDY    44  26  49 SW15      30.21F
NEWARK/LIBERTY CLOUDY    43  21  41 SW13      30.19F
BRNX BOT. GARD   N/A    N/A N/A N/A S12       30.20R
TETERBORO      CLOUDY    43  19  38 SW7       30.18F
$$

NYZ177-179-078>081-230700-
LONG ISLAND NEW YORK

CITY           SKY/WX    TMP DP  RH WIND       PRES   REMARKS
FARMINGDALE    CLOUDY    45  24  43 SW12      30.20F
ISLIP          CLOUDY    44  25  47 SW14      30.18F
SHIRLEY        CLOUDY    45  26  47 SW9G21    30.20F
WESTHAMPTON    MOCLDY    45  29  53 SW16G23   30.20F
MONTAUK POINT    N/A     46  32  58 SW9G22    30.18F
$$

NYZ052-065-067-230700-
HUDSON VALLEY

CITY           SKY/WX    TMP DP  RH WIND       PRES   REMARKS
WHITE PLAINS   CLOUDY    42  18  37 VRB5      30.15F
NEWBURGH       MOCLDY    39  21  48 SW7       30.16S WCI  34
MONTGOMERY     CLOUDY    38  20  48 SW7       30.14S WCI  33
POUGHKEEPSIE   CLOUDY    43  18  36 SW7       30.16F
ALBANY         LGT RAIN  37  29  72 S9        30.09S WCI  30
$$

NJZ001-105-106-008-010-013-015-019>022-104-230700-
NEW JERSEY

CITY           SKY/WX    TMP DP  RH WIND       PRES   REMARKS
NEWARK/LIBERTY CLOUDY    43  21  41 SW13      30.19F
TETERBORO      CLOUDY    43  19  38 SW7       30.18F
CALDWELL       CLOUDY    41  18  39 SW5       30.18F
MORRISTOWN       N/A     43  19  39 SW8       30.19F
SOMERVILLE     CLOUDY    40  20  44 CALM      30.19F
SUSSEX         CLOUDY    39  20  46 SW7       30.16S WCI  34
ANDOVER          N/A     37  20  50 CALM      30.17F
TRENTON        CLOUDY    41  22  46 SW7       30.21F
MILLVILLE      CLOUDY    43  25  49 VRB6      30.25F
ATLANTIC CITY  MOCLDY    44  24  45 SW10      30.25F
WRIGHTSTOWN    CLOUDY    42  21  43 SW6       30.20F
TOMS RIVER     CLOUDY    43  21  42 CALM      30.24S
BELMAR         CLOUDY    43  19  39 SW9       30.21F
$$

PAZ047>061-062-071-230700-
EASTERN PENNSYLVANIA

CITY           SKY/WX    TMP DP  RH WIND       PRES   REMARKS
PHILADELPHIA   MOCLDY    42  24  49 SW8       30.24F
ALLENTOWN      CLOUDY    35  22  58 NW3       30.19F
SCRANTON       CLOUDY    39  17  41 SW6       30.14F WCI  35
$$

CTZ002-004>006-009-010-012-RIZ004-006-007-MAZ004-011-015-230700-
SOUTHERN NEW ENGLAND
 IN CT

CITY           SKY/WX    TMP DP  RH WIND       PRES   REMARKS
BRADLEY INTL   CLOUDY    44  19  36 S10       30.10F
HARTFORD       CLOUDY    43  19  38 S9        30.13F
DANBURY        CLOUDY    40  17  39 W5        30.17S
WTRBRY/OXFORD  CLOUDY    39  18  41 W6        30.15F WCI  35
BRIDGEPORT     CLOUDY    45  28  51 SW13      30.17F
MERIDEN        CLOUDY    42  18  37 SW7       30.16S
NEW HAVEN      CLOUDY    48  28  46 SW12G17   30.17F
CHESTER        FAIR      43  28  56 SW12G18   30.15S
GROTON         CLOUDY    45  29  53 SW16G32   30.15F
WILLIMANTIC    CLOUDY    43  19  38 SW8       30.14S

 IN RI

CITY           SKY/WX    TMP DP  RH WIND       PRES   REMARKS
PROVIDENCE     CLOUDY    43  25  49 SW14      30.12S
BLOCK ISLAND   CLOUDY    46  30  53 W21G32    30.16S
WESTERLY       CLOUDY    45  29  53 SW15G24   30.16S

 IN MA

CITY           SKY/WX    TMP DP  RH WIND       PRES   REMARKS
BOSTON         CLOUDY    43  22  43 SW14      30.06S
WORCESTER      MOCLDY    38  20  48 W22G30    30.04S WCI  27
WESTFIELD      CLOUDY    36  28  73 CALM      30.10R
PROVINCETOWN   CLOUDY    46  32  57 SW16G28   30.09S
NANTUCKET      CLOUDY    52  42  69 SW28G38   30.13F
$$

ANZ330-335-338-340-345-350-353-355-230700-
COASTAL MARINE OBSERVATIONS


STATION/POSITION TIME  SKY/WX   TEMP    WIND        PRES    VSBY  WAVE
                                AIR SEA DIR/SP/G                  HT/PER
                 (UTC)          (F)     (DEG/KT/KT) (MB)    (MI)  (FT/S)
NY HARB ENTRANCE 0600            47 57  250/ 17/ 21 1023.1          5/ 6
4S FIRE IS       0600               52                N/A           7/ 7
20S FIRE ISLAND  0600            49 53  250/ 23/ 27 1023.0          7/ 8
23SW MTP         0600                                 N/A           9/ 7
HUDSON CANYON    0600            53 58  250/ 25/ 29 1023.6          8/ 7
EXECUTION ROCKS  0600            46 47  250/ 17/ 23   N/A
WESTERN LI SOUND 0600            46     230/ 14/ 17   N/A           2/ 3
CENTRAL LI SOUND 0500            46 51  240/ 19/ 23   N/A           5/ 5
EASTERN LI SOUND 0500            47 52  230/ 17/ 25   N/A
ROBBINS REEF     0600            44     250/ 15/ 18 1021.3
$$


>>>>>>>>>>>>>>>>>>>>>>>>>>>> KEY <<<<<<<<<<<<<<<<<<<<<<<<<<<
>                                                          <
>     SKY/WX - SKY CONDITION/PRESENT WEATHER               <
>     TMP    - TEMPERATURE IN FAHRENHEIT                   <
>     DP     - DEWPOINT IN FAHRENHEIT                      <
>     RH     - RELATIVE HUMIDITY IN PERCENT                <
>     WIND   - DIRECTION AND SPEED IN MPH                  <
>     PRES   - MEAN SEA LEVEL PRESSURE IN INCHES OF HG     <
>     WCI    - WIND CHILL INDEX                            <
>     VSB    - VISIBILITY IN MILES                         <
>     HX     - HEAT INDEX                                  <
>     TC     - TEMPERATURE IN CELSIUS                      <
>     VRB    - VARIABLE WIND DIRECTION                     <
>                                                          <
>>>>>>>>>>>>>>>>>>>>>>>>>>>> KEY <<<<<<<<<<<<<<<<<<<<<<<<<<<




USA.gov is the U.S. government's official web portal to all federal, state and local government web resources and services.